• In Deutschland
  • Länderverzeichnis
  • Für 7 Tage
  • Wassertemperatur
  • Satellitenkarten
  • Wetterkarte
  • Widgets
  • user-avatar
    Anmelden

    Stündliche Wetter Uige

    Heute, 23 November, Donnerstag

    Zeit Temperatur Niederschläge Wind Luftdruck Luftfeuchtigkeit
    00:00 +20°C° 0,1 mm 0 m/S 690 mmHg 95%
    01:00 +19°C° 0,1 mm 0 m/S 690 mmHg 95%
    02:00 +19°C° 0 mm 0 m/S 690 mmHg 95%
    03:00 +19°C° 0 mm 0 m/S 690 mmHg 95%
    04:00 +19°C° 0 mm 0 m/S 689 mmHg 96%
    05:00 +19°C° 0 mm 0 m/S 690 mmHg 95%
    06:00 +20°C° 0 mm 0 m/S 690 mmHg 94%
    07:00 +20°C° 0 mm 0 m/S 691 mmHg 94%
    08:00 +22°C° 0,4 mm 0 m/S 691 mmHg 86%
    09:00 +26°C° 0,4 mm 1 m/S 691 mmHg 79%
    10:00 +28°C° 0,4 mm 1 m/S 692 mmHg 71%
    11:00 +28°C° 1,2 mm 1 m/S 691 mmHg 74%
    12:00 +28°C° 1,2 mm 1 m/S 690 mmHg 77%
    13:00 +28°C° 1,2 mm 1 m/S 690 mmHg 79%
    14:00 +28°C° 2,3 mm 1 m/S 689 mmHg 83%
    15:00 +27°C° 2,3 mm 1 m/S 689 mmHg 88%
    16:00 +26°C° 2,3 mm 1 m/S 688 mmHg 92%
    17:00 +25°C° 1,3 mm 1 m/S 689 mmHg 93%
    18:00 +24°C° 1,3 mm 1 m/S 689 mmHg 94%
    19:00 +22°C° 1,3 mm 1 m/S 689 mmHg 96%
    20:00 +22°C° 0,1 mm 1 m/S 690 mmHg 96%
    21:00 +22°C° 0,1 mm 1 m/S 690 mmHg 97%
    22:00 +22°C° 0,1 mm 1 m/S 691 mmHg 97%
    23:00 +21°C° 1,1 mm 1 m/S 691 mmHg 98%

    Morgen, 24 November, Freitag

    Zeit Temperatur Niederschläge Wind Luftdruck Luftfeuchtigkeit
    00:00 +21°C° 1,1 mm 1 m/S 691 mmHg 98%
    01:00 +21°C° 1,1 mm 1 m/S 691 mmHg 98%
    02:00 +21°C° 1 mm 1 m/S 690 mmHg 98%
    03:00 +21°C° 1 mm 1 m/S 690 mmHg 99%
    04:00 +21°C° 1 mm 1 m/S 690 mmHg 99%
    05:00 +21°C° 0,7 mm 1 m/S 690 mmHg 98%
    06:00 +21°C° 0,7 mm 1 m/S 691 mmHg 98%
    07:00 +22°C° 0,7 mm 1 m/S 691 mmHg 98%
    08:00 +22°C° 0,7 mm 1 m/S 691 mmHg 96%
    09:00 +23°C° 0,7 mm 1 m/S 692 mmHg 94%
    10:00 +24°C° 0,7 mm 1 m/S 692 mmHg 93%
    11:00 +25°C° 0,7 mm 2 m/S 691 mmHg 88%
    12:00 +26°C° 0,7 mm 2 m/S 691 mmHg 84%
    13:00 +27°C° 0,7 mm 2 m/S 690 mmHg 79%
    14:00 +27°C° 0,5 mm 2 m/S 690 mmHg 81%
    15:00 +26°C° 0,5 mm 2 m/S 689 mmHg 83%
    16:00 +26°C° 0,5 mm 2 m/S 689 mmHg 85%
    17:00 +25°C° 0,2 mm 2 m/S 689 mmHg 89%
    18:00 +24°C° 0,2 mm 1 m/S 690 mmHg 93%
    19:00 +22°C° 0,2 mm 1 m/S 690 mmHg 97%
    20:00 +22°C° 0,2 mm 1 m/S 690 mmHg 97%
    21:00 +22°C° 0,2 mm 1 m/S 691 mmHg 97%
    22:00 +20°C° 0,2 mm 0 m/S 691 mmHg 97%
    23:00 +19°C° 0,2 mm 0 m/S 691 mmHg 97%

    übermorgen, 25 November, Samstag

    Zeit Temperatur Niederschläge Wind Luftdruck Luftfeuchtigkeit
    00:00 +19°C° 0,2 mm 0 m/S 691 mmHg 97%
    01:00 +19°C° 0,2 mm 0 m/S 691 mmHg 97%
    02:00 +19°C° 0,1 mm 0 m/S 690 mmHg 97%
    03:00 +19°C° 0,1 mm 0 m/S 690 mmHg 97%
    04:00 +18°C° 0,1 mm 0 m/S 690 mmHg 97%
    05:00 +19°C° 0 mm 0 m/S 691 mmHg 96%
    06:00 +19°C° 0 mm 0 m/S 691 mmHg 95%
    07:00 +20°C° 0 mm 0 m/S 692 mmHg 94%
    08:00 +21°C° 0,1 mm 0 m/S 692 mmHg 89%
    09:00 +24°C° 0,1 mm 1 m/S 692 mmHg 84%
    10:00 +25°C° 0,1 mm 1 m/S 693 mmHg 78%
    11:00 +25°C° 0,2 mm 1 m/S 692 mmHg 77%
    12:00 +26°C° 0,2 mm 1 m/S 691 mmHg 76%
    13:00 +26°C° 0,2 mm 1 m/S 690 mmHg 75%
    14:00 +26°C° 0,1 mm 2 m/S 690 mmHg 76%
    15:00 +26°C° 0,1 mm 2 m/S 690 mmHg 76%
    16:00 +26°C° 0,1 mm 2 m/S 689 mmHg 77%
    17:00 +25°C° 0,2 mm 1 m/S 690 mmHg 84%
    18:00 +23°C° 0,2 mm 1 m/S 690 mmHg 90%
    19:00 +22°C° 0,2 mm 1 m/S 691 mmHg 96%
    20:00 +22°C° 0,3 mm 1 m/S 691 mmHg 97%
    21:00 +21°C° 0,3 mm 1 m/S 692 mmHg 98%
    22:00 +21°C° 0,3 mm 1 m/S 692 mmHg 98%
    23:00 +21°C° 0,5 mm 1 m/S 692 mmHg 98%

    26 November, Sonntag

    Zeit Temperatur Niederschläge Wind Luftdruck Luftfeuchtigkeit
    00:00 +21°C° 0,5 mm 1 m/S 691 mmHg 99%
    01:00 +21°C° 0,5 mm 1 m/S 691 mmHg 99%
    02:00 +21°C° 0,4 mm 1 m/S 691 mmHg 99%
    03:00 +21°C° 0,4 mm 1 m/S 691 mmHg 99%
    04:00 +21°C° 0,4 mm 1 m/S 691 mmHg 99%
    05:00 +21°C° 0,3 mm 1 m/S 691 mmHg 98%
    06:00 +21°C° 0,3 mm 1 m/S 692 mmHg 98%
    07:00 +19°C° 0,3 mm 0 m/S 693 mmHg 98%
    08:00 +19°C° 0,4 mm 0 m/S 693 mmHg 97%
    09:00 +20°C° 0,4 mm 0 m/S 693 mmHg 96%
    10:00 +20°C° 0,4 mm 0 m/S 694 mmHg 94%
    11:00 +23°C° 0,5 mm 1 m/S 693 mmHg 93%
    12:00 +23°C° 0,5 mm 1 m/S 693 mmHg 92%
    13:00 +24°C° 0,5 mm 1 m/S 692 mmHg 90%
    14:00 +24°C° 0,7 mm 1 m/S 692 mmHg 91%
    15:00 +23°C° 0,7 mm 1 m/S 692 mmHg 93%
    16:00 +21°C° 0,7 mm 0 m/S 691 mmHg 94%
    17:00 +21°C° 0,4 mm 0 m/S 692 mmHg 95%
    18:00 +20°C° 0,4 mm 0 m/S 692 mmHg 96%
    19:00 +19°C° 0,4 mm 0 m/S 693 mmHg 96%
    20:00 +19°C° 0,1 mm 0 m/S 693 mmHg 97%
    21:00 +19°C° 0,1 mm 0 m/S 693 mmHg 97%
    22:00 +19°C° 0,1 mm 0 m/S 693 mmHg 97%
    23:00 +19°C° 0,2 mm 0 m/S 693 mmHg 97%

    27 November, Montag

    Zeit Temperatur Niederschläge Wind Luftdruck Luftfeuchtigkeit
    00:00 +18°C° 0,2 mm 0 m/S 692 mmHg 97%
    01:00 +18°C° 0,2 mm 0 m/S 692 mmHg 98%
    02:00 +18°C° 0,2 mm 0 m/S 692 mmHg 97%
    03:00 +18°C° 0,2 mm 0 m/S 691 mmHg 97%
    04:00 +20°C° 0,2 mm 1 m/S 691 mmHg 97%
    05:00 +18°C° 0,1 mm 0 m/S 692 mmHg 97%
    06:00 +19°C° 0,1 mm 0 m/S 692 mmHg 96%
    07:00 +20°C° 0,1 mm 0 m/S 693 mmHg 95%
    08:00 +24°C° 0,1 mm 1 m/S 693 mmHg 85%
    09:00 +26°C° 0,1 mm 1 m/S 693 mmHg 75%
    10:00 +28°C° 0,1 mm 1 m/S 694 mmHg 65%
    11:00 +28°C° 0,4 mm 1 m/S 693 mmHg 66%
    12:00 +28°C° 0,4 mm 1 m/S 692 mmHg 67%
    13:00 +29°C° 0,4 mm 1 m/S 691 mmHg 69%
    14:00 +28°C° 1,2 mm 1 m/S 691 mmHg 75%
    15:00 +27°C° 1,2 mm 1 m/S 690 mmHg 81%
    16:00 +26°C° 1,2 mm 1 m/S 690 mmHg 87%
    17:00 +25°C° 0,6 mm 1 m/S 690 mmHg 90%
    18:00 +24°C° 0,6 mm 1 m/S 691 mmHg 92%
    19:00 +20°C° 0,6 mm 0 m/S 691 mmHg 95%
    20:00 +20°C° 0 mm 0 m/S 691 mmHg 95%
    21:00 +21°C° 0 mm 1 m/S 692 mmHg 96%
    22:00 +21°C° 0 mm 1 m/S 692 mmHg 96%
    23:00 +21°C° 0 mm 1 m/S 692 mmHg 97%

    28 November, Dienstag

    Zeit Temperatur Niederschläge Wind Luftdruck Luftfeuchtigkeit
    00:00 +21°C° 0 mm 1 m/S 691 mmHg 97%
    01:00 +21°C° 0 mm 1 m/S 691 mmHg 97%
    02:00 +20°C° 0 mm 1 m/S 691 mmHg 97%
    03:00 +20°C° 0 mm 1 m/S 691 mmHg 98%
    04:00 +20°C° 0 mm 1 m/S 690 mmHg 98%
    05:00 +21°C° 0 mm 1 m/S 691 mmHg 97%
    06:00 +21°C° 0 mm 1 m/S 691 mmHg 96%
    07:00 +22°C° 0 mm 1 m/S 692 mmHg 95%
    08:00 +24°C° 0,1 mm 1 m/S 692 mmHg 85%
    09:00 +27°C° 0,1 mm 1 m/S 692 mmHg 74%
    10:00 +29°C° 0,1 mm 1 m/S 693 mmHg 64%
    11:00 +30°C° 0,4 mm 1 m/S 692 mmHg 60%
    12:00 +31°C° 0,4 mm 1 m/S 692 mmHg 56%
    13:00 +32°C° 0,4 mm 1 m/S 691 mmHg 52%
    14:00 +31°C° 0,5 mm 1 m/S 690 mmHg 58%
    15:00 +30°C° 0,5 mm 1 m/S 690 mmHg 64%
    16:00 +28°C° 0,5 mm 1 m/S 689 mmHg 70%
    17:00 +27°C° 0,4 mm 1 m/S 690 mmHg 76%
    18:00 +25°C° 0,4 mm 1 m/S 690 mmHg 81%
    19:00 +22°C° 0,4 mm 0 m/S 690 mmHg 87%
    20:00 +21°C° 0,3 mm 0 m/S 691 mmHg 89%
    21:00 +21°C° 0,3 mm 0 m/S 691 mmHg 92%
    22:00 +20°C° 0,3 mm 0 m/S 691 mmHg 94%
    23:00 +22°C° 0,4 mm 1 m/S 691 mmHg 95%
    Mehr zeigen